EW4462 Weather Reports


Display with metric or nautical units.
time (UTC)temp
F
wind
direction
speed
MPH
gust
MPH
rain 1hr
in
rain 24hr
in
rain mn
in
humidity
%
barometer
mb
20260904112248 66 336 0.0 0.0 0.00 0.00 0.00 85 1013.1
20260904111253 66 339 0.0 0.0 0.00 0.00 0.00 85 1013.2
20260904105141 65 42 0.0 0.0 0.00 0.00 0.00 87 1013.1
20260904104155 65 42 0.0 0.0 0.00 0.00 0.00 87 1013.0
20260904103122 65 93 0.0 0.0 0.00 0.00 0.00 88 1013.0
20260904102139 64 93 0.0 0.0 0.00 0.00 0.00 88 1012.9
20260904101121 64 93 0.0 0.0 0.00 0.00 0.00 89 1012.8
20260904100114 64 93 0.0 0.0 0.00 0.00 0.00 89 1012.9
20260904095112 63 93 0.0 0.0 0.00 0.00 0.00 90 1012.9
20260904092939 63 93 0.0 0.0 0.00 0.00 0.00 89 1012.9
20260904091946 63 93 0.0 0.0 0.00 0.00 0.00 88 1013.0
20260904090954 63 93 0.0 0.0 0.00 0.00 0.00 89 1012.9
20260904085940 63 93 0.0 0.0 0.00 0.00 0.00 89 1013.0
20260904084908 63 93 0.0 0.0 0.00 0.00 0.00 88 1013.1
20260904083927 63 93 0.0 0.0 0.00 0.00 0.00 88 1013.1
20260904081823 63 93 0.0 0.0 0.00 0.00 0.00 88 1013.3
20260904080803 63 93 0.0 0.0 0.00 0.00 0.00 88 1013.4
20260904074623 63 93 0.0 0.0 0.00 0.00 0.00 88 1013.4
20260904073614 63 93 0.0 0.0 0.00 0.00 0.00 87 1013.4
20260904072601 63 93 0.0 0.0 0.00 0.00 0.00 88 1013.4
20260904071536 63 93 0.0 0.0 0.00 0.00 0.00 87 1013.4
20260904070524 64 93 0.0 0.0 0.00 0.00 0.00 87 1013.4
20260904065531 64 93 0.0 0.0 0.00 0.00 0.00 87 1013.4
20260904064556 64 93 0.0 0.0 0.00 0.00 0.00 87 1013.4
20260904063612 64 93 0.0 0.0 0.00 0.00 0.00 87 1013.4
20260904062551 64 93 0.0 0.0 0.00 0.00 0.00 87 1013.4
20260904060436 64 93 0.0 0.0 0.00 0.00 0.00 86 1013.4
20260904055424 64 93 0.0 0.0 0.00 0.00 0.00 86 1013.3
20260904054428 64 93 0.0 0.0 0.00 0.00 0.00 86 1013.4
20260904052314 65 93 0.0 0.0 0.00 0.00 0.00 85 1013.5
20260904051248 65 93 0.0 0.0 0.00 0.00 0.00 85 1013.5
20260904050216 65 93 0.0 0.0 0.00 0.00 0.00 84 1013.6
20260904044049 66 93 0.0 0.0 0.00 0.00 0.00 83 1013.6
20260904043039 66 93 0.0 0.0 0.00 0.00 0.00 83 1013.5
20260904042040 66 93 0.0 0.0 0.00 0.00 0.00 82 1013.5
20260904041059 67 93 0.0 0.0 0.00 0.00 0.00 82 1013.5
20260904040031 67 93 0.0 0.0 0.00 0.00 0.00 82 1013.5
20260904035005 67 93 0.0 0.0 0.00 0.00 0.00 82 1013.3
20260904033945 68 93 0.0 0.0 0.00 0.00 0.00 81 1013.2
20260904032947 68 93 0.0 0.0 0.00 0.00 0.00 80 1013.2
20260904031930 68 93 0.0 0.0 0.00 0.00 0.00 81 1013.1
20260904030931 68 94 0.0 0.0 0.00 0.00 0.00 80 1012.9
20260904024801 69 94 0.0 0.0 0.00 0.00 0.00 79 1012.8
20260904023825 69 94 0.0 0.0 0.00 0.00 0.00 79 1013.0
20260904022847 69 94 0.0 0.0 0.00 0.00 0.00 78 1013.0
20260904021844 70 93 0.0 0.0 0.00 0.00 0.00 77 1012.9
20260904020847 70 93 0.0 0.0 0.00 0.00 0.00 77 1012.8
20260904015911 70 91 0.0 0.0 0.00 0.00 0.00 76 1013.0
20260904014902 71 133 0.0 0.0 0.00 0.00 0.00 76 1012.8
20260904012728 72 153 0.0 0.0 0.00 0.00 0.00 74 1013.1
20260904010624 73 101 0.0 0.0 0.00 0.00 0.00 73 1013.1
20260904004455 74 128 0.0 0.0 0.00 0.00 0.00 71 1012.9
20260904002322 76 75 0.0 0.0 0.00 0.00 0.00 68 1012.9
20260904001318 76 119 0.0 0.0 0.00 0.00 0.00 67 1012.9
20260904000304 77 119 0.0 0.0 0.00 0.00 0.00 66 1013.1
20260903235240 77 161 0.0 1.0 0.00 0.00 0.00 67 1013.0
20260903234215 77 121 0.0 0.0 0.00 0.00 0.00 67 1013.1
20260903233239 77 80 0.0 0.0 0.00 0.00 0.00 67 1013.1
20260903232259 77 120 0.0 0.0 0.00 0.00 0.00 68 1013.2
20260903231306 77 114 0.0 0.0 0.00 0.00 0.00 69 1013.3
20260903230317 78 103 0.0 0.0 0.00 0.00 0.00 68 1013.3
20260903225308 78 118 0.0 1.0 0.00 0.00 0.00 67 1013.4
20260903223150 78 86 0.0 0.0 0.00 0.00 0.00 67 1013.5
20260903222205 79 112 0.0 5.0 0.00 0.00 0.00 67 1013.5
20260903221154 79 108 0.0 0.0 0.00 0.00 0.00 67 1013.6
20260903220149 78 81 0.0 0.0 0.00 0.00 0.00 68 1013.7
20260903215123 78 113 0.0 0.0 0.00 0.00 0.00 68 1013.8
20260903214135 78 105 0.0 0.0 0.00 0.00 0.00 69 1013.8
20260903213118 78 113 0.0 0.0 0.00 0.00 0.00 69 1013.8
20260903212138 78 74 0.0 0.0 0.00 0.00 0.00 70 1013.9
20260903211120 78 115 0.0 0.0 0.00 0.00 0.00 69 1013.9
20260903210111 78 102 0.0 5.0 0.00 0.00 0.00 68 1013.8
20260903205115 78 114 0.0 0.0 0.00 0.00 0.00 69 1013.8
20260903202916 79 93 0.0 0.0 0.00 0.00 0.00 67 1013.9
20260903195701 78 80 0.0 0.0 0.00 0.00 0.00 70 1013.9
20260903194722 77 118 0.0 0.0 0.00 0.00 0.00 71 1014.1
20260903192537 78 108 0.0 1.0 0.00 0.00 0.00 68 1014.4
20260903190431 77 92 0.0 0.0 0.00 0.00 0.00 69 1014.6
20260903185406 77 115 0.0 0.0 0.00 0.00 0.00 68 1014.8
20260903184337 78 148 0.0 0.0 0.00 0.00 0.00 67 1015.0
20260903183324 77 135 0.0 0.0 0.00 0.00 0.00 67 1015.1
20260903182327 77 69 0.0 0.0 0.00 0.00 0.00 67 1015.2
20260903181331 77 101 0.0 0.0 0.00 0.00 0.00 68 1015.2
20260903180326 77 126 0.0 0.0 0.00 0.00 0.00 67 1015.3
20260903175318 78 111 0.0 0.0 0.00 0.00 0.00 65 1015.2
20260903174314 78 114 0.0 0.0 0.00 0.00 0.00 62 1015.3
20260903173333 78 84 0.0 0.0 0.00 0.00 0.00 62 1015.3
20260903172306 77 122 0.0 0.0 0.00 0.00 0.00 64 1015.3
20260903171237 76 58 0.0 0.0 0.00 0.00 0.00 67 1015.3
20260903170243 76 107 0.0 0.0 0.00 0.00 0.00 69 1015.3
20260903164052 75 64 0.0 0.0 0.00 0.00 0.00 71 1015.4
20260903161930 74 57 0.0 0.0 0.00 0.00 0.00 75 1015.3
20260903155803 71 61 0.0 0.0 0.00 0.00 0.00 77 1015.5
20260903154800 72 60 0.0 0.0 0.00 0.00 0.00 76 1015.5
20260903152605 71 57 0.0 0.0 0.00 0.00 0.00 80 1015.6
20260903151555 70 57 0.0 0.0 0.00 0.00 0.00 83 1015.6
20260903150609 68 57 0.0 0.0 0.00 0.00 0.00 89 1015.6
20260903145613 65 57 0.0 0.0 0.00 0.00 0.00 93 1015.7
20260903143432 61 57 0.0 0.0 0.00 0.00 0.00 93 1015.4
20260903140124 60 55 0.0 0.0 0.00 0.00 0.00 92 1015.1
20260903135056 60 55 0.0 0.0 0.00 0.00 0.00 92 1015.0
20260903134036 60 102 0.0 0.0 0.00 0.00 0.00 92 1014.9
20260903133022 60 102 0.0 0.0 0.00 0.00 0.00 91 1014.9
20260903132000 60 102 0.0 0.0 0.00 0.00 0.00 91 1014.7
20260903131015 60 102 0.0 0.0 0.00 0.00 0.00 91 1014.6
20260903130021 60 102 0.0 0.0 0.00 0.00 0.00 91 1014.7
20260903125042 60 101 0.0 0.0 0.00 0.00 0.00 91 1014.7
20260903124015 60 102 0.0 0.0 0.00 0.00 0.00 91 1014.6
20260903121835 60 102 0.0 0.0 0.00 0.00 0.00 91 1014.5
20260903120835 60 102 0.0 0.0 0.00 0.00 0.00 90 1014.5
20260903115837 60 101 0.0 0.0 0.00 0.00 0.00 90 1014.5
20260903114805 61 102 0.0 0.0 0.00 0.00 0.00 91 1014.5
20260903113821 61 102 0.0 0.0 0.00 0.00 0.00 91 1014.6
20260903112846 61 102 0.0 0.0 0.00 0.00 0.00 91 1014.7